User: anonymous
Location: Radford
(37.1320°N, 80.5770°W)
Time: 09:57:47
(UTC-04:00)
Language:

Okean 1-7 - Orbit

View from above orbital plane
View from above orbital plane
View from above satellite
View from above satellite

Ground track
Ground track

The orbit data is extracted from the following two-line orbital elements,

1 23317U 94066A   14112.51887362  .00002253  00000-0  25817-3 0  5129
2 23317 082.5361 120.1217 0018906 283.9655 190.0607 14.85406646 54847
Epoch (UTC): 22 April 2014 12:27:10
Eccentricity: 0.0018906
inclination: 82.5361°
perigee height: 599 km
apogee height: 625 km
right ascension of ascending node: 120.1217°
argument of perigee: 283.9655°
revolutions per day: 14.85406646
mean anomaly at epoch: 190.0607°
orbit number at epoch: 5484

The dashed part of the orbit path shows where the satellite is in the earth's shadow,  

DLR